Погода в Пружанах

Беларусь     52°33′18″N   24°27′45″E
темп.,
°C
ветер,
м/с
пор.,
м/с
влажн.,
%
обл.,
%
осадки,
мм/ч
давл.,
гПа
погр.,
м
27 октября, ср
ср2700:00+7юз41063100 0.0 1020263
03:00+8зюз41066100 0.0 1020380
06:00+7зюз4986100 0.0 1021210
09:00+6з49962 0.0 1022266
12:00+11з587399 0.0 1022621
15:00+13з6961100 0.0 10221068
18:00+11зюз51070100 0.0 1022576
21:00+11зюз61371100 0.0 1021582
28 октября, чт
чт2800:00+10зюз61275100 0.0 1021460
03:00+9зюз5138599 0.0 1021376
06:00+8з4109482 0.0 1022304
09:00+9зюз5109484 0.0 1023268
12:00+12з5976100 0.0 1023459
15:00+14зсз4770100 0.0 1024629
18:00+13зсз247893 0.0 102481
21:00+10зсз229199 0.0 102512
29 октября, пт
пт2900:00+9юз119161 0.0 102610
03:00+9ююв229368 0.0 102613
06:00+8ююв33945 0.0 102644
09:00+8юв37965 0.0 1026133
12:00+13ююв58765 0.0 1026464
15:00+16ююв68655 0.0 1025814
18:00+13юв4107727 0.0 1024228
21:00+11юв5138171 0.0 1024315
30 октября, сб
сб3000:00+10юв6158392 0.0 1023353
03:00+9юв5148599 0.0 1023349
06:00+8ююв6149173 0.0 1022350
09:00+8ююв5139162 0.0 1022322
12:00+13ю6106534 0.0 1022436
15:00+17ю69465 0.0 1021881
18:00+13ююв47585 0.0 1021105
21:00+11ююв512685 0.0 1022226
31 октября, вс
вс3100:00+9ю37765 0.0 1022128
03:00+8ююв48850 0.0 1021141
06:00+7ююв49881 0.0 1020157
09:00+6юв512915 0.0 1019237
12:00+12ююв7116430 0.0 1017418
15:00+14ююв71155100 0.0 1015663
18:00+13ююв71558100 0.0 1014514
21:00+12ююв71654100 0.0 1013484